When you browse on this site, cookies collect data to enhance your experience and personalize the content and advertising you see.
Visit our Privacy Policy to learn more. By continuing to use the site, you agree to this use of cookies and data.
  • In Hungary
  • List of Countries
  • For 7 days
  • Water Temperature
  • Weather Map
  • News
  • Weather Widgets
  • user-avatar
    Login

    Hourly Weather Caloundra

    Today, 19 November, Tuesday

    Time Temperature Precipitation Wind Pressure Humidity
    00:00 +17°C° 0 mm 2 mps 761 mmHg 97%
    01:00 +17°C° 0 mm 2 mps 761 mmHg 97%
    02:00 +17°C° 0 mm 2 mps 761 mmHg 97%
    03:00 +17°C° 0 mm 2 mps 761 mmHg 96%
    04:00 +20°C° 0 mm 1 mps 760 mmHg 95%
    05:00 +21°C° 0 mm 1 mps 761 mmHg 88%
    06:00 +22°C° 0 mm 1 mps 761 mmHg 81%
    07:00 +24°C° 0 mm 1 mps 761 mmHg 75%
    08:00 +26°C° 0 mm 1 mps 761 mmHg 64%
    09:00 +29°C° 0 mm 1 mps 761 mmHg 53%
    10:00 +31°C° 0 mm 1 mps 761 mmHg 43%
    11:00 +32°C° 0 mm 2 mps 760 mmHg 42%
    12:00 +33°C° 0 mm 3 mps 759 mmHg 41%
    13:00 +33°C° 0 mm 5 mps 758 mmHg 40%
    14:00 +32°C° 0 mm 5 mps 758 mmHg 47%
    15:00 +30°C° 0 mm 5 mps 757 mmHg 54%
    16:00 +28°C° 0 mm 6 mps 757 mmHg 60%
    17:00 +27°C° 0 mm 6 mps 757 mmHg 68%
    18:00 +24°C° 0 mm 6 mps 758 mmHg 75%
    19:00 +22°C° 0 mm 6 mps 758 mmHg 82%
    20:00 +22°C° 0 mm 5 mps 758 mmHg 85%
    21:00 +21°C° 0 mm 5 mps 759 mmHg 87%
    22:00 +21°C° 0 mm 5 mps 759 mmHg 90%
    23:00 +20°C° 0 mm 4 mps 759 mmHg 93%

    Tomorrow, 20 November, Wednesday

    Time Temperature Precipitation Wind Pressure Humidity
    00:00 +20°C° 0 mm 4 mps 759 mmHg 95%
    01:00 +19°C° 0 mm 3 mps 759 mmHg 98%
    02:00 +19°C° 0 mm 3 mps 759 mmHg 98%
    03:00 +19°C° 0 mm 2 mps 759 mmHg 98%
    04:00 +19°C° 0 mm 2 mps 759 mmHg 98%
    05:00 +21°C° 0 mm 2 mps 759 mmHg 91%
    06:00 +22°C° 0 mm 3 mps 759 mmHg 84%
    07:00 +25°C° 0 mm 3 mps 760 mmHg 76%
    08:00 +29°C° 0 mm 3 mps 760 mmHg 64%
    09:00 +33°C° 0 mm 3 mps 759 mmHg 51%
    10:00 +36°C° 0 mm 3 mps 759 mmHg 38%
    11:00 +36°C° 0 mm 4 mps 759 mmHg 40%
    12:00 +35°C° 0 mm 5 mps 758 mmHg 41%
    13:00 +35°C° 0 mm 6 mps 757 mmHg 42%
    14:00 +34°C° 0 mm 6 mps 757 mmHg 48%
    15:00 +32°C° 0 mm 6 mps 757 mmHg 55%
    16:00 +30°C° 0 mm 6 mps 757 mmHg 61%
    17:00 +28°C° 0 mm 6 mps 757 mmHg 69%
    18:00 +26°C° 0 mm 6 mps 758 mmHg 77%
    19:00 +24°C° 0 mm 6 mps 759 mmHg 84%
    20:00 +23°C° 0 mm 5 mps 760 mmHg 88%
    21:00 +23°C° 0 mm 5 mps 760 mmHg 91%
    22:00 +22°C° 0 mm 4 mps 761 mmHg 94%
    23:00 +22°C° 0 mm 4 mps 761 mmHg 95%

    Day after tomorrow, 21 November, Thursday

    Time Temperature Precipitation Wind Pressure Humidity
    00:00 +22°C° 0 mm 3 mps 761 mmHg 96%
    01:00 +21°C° 0 mm 3 mps 761 mmHg 96%
    02:00 +21°C° 0 mm 3 mps 761 mmHg 97%
    03:00 +20°C° 0 mm 3 mps 761 mmHg 97%
    04:00 +20°C° 0 mm 3 mps 761 mmHg 97%
    05:00 +21°C° 0 mm 3 mps 762 mmHg 89%
    06:00 +24°C° 0 mm 3 mps 762 mmHg 80%
    07:00 +25°C° 0 mm 3 mps 763 mmHg 72%
    08:00 +26°C° 0 mm 3 mps 763 mmHg 64%
    09:00 +28°C° 0 mm 3 mps 763 mmHg 56%
    10:00 +29°C° 0 mm 3 mps 763 mmHg 49%
    11:00 +29°C° 0 mm 4 mps 762 mmHg 47%
    12:00 +29°C° 0 mm 4 mps 762 mmHg 45%
    13:00 +29°C° 0 mm 4 mps 761 mmHg 42%
    14:00 +29°C° 0 mm 4 mps 761 mmHg 46%
    15:00 +28°C° 0 mm 4 mps 761 mmHg 50%
    16:00 +27°C° 0 mm 4 mps 760 mmHg 53%
    17:00 +25°C° 0 mm 4 mps 761 mmHg 64%
    18:00 +22°C° 0 mm 4 mps 762 mmHg 74%
    19:00 +20°C° 0 mm 4 mps 762 mmHg 85%
    20:00 +19°C° 0 mm 3 mps 762 mmHg 88%
    21:00 +19°C° 0 mm 3 mps 763 mmHg 92%
    22:00 +18°C° 0 mm 3 mps 763 mmHg 95%
    23:00 +18°C° 0 mm 3 mps 763 mmHg 96%

    22 November, Friday

    Time Temperature Precipitation Wind Pressure Humidity
    00:00 +17°C° 0 mm 3 mps 763 mmHg 96%
    01:00 +17°C° 0 mm 3 mps 763 mmHg 97%
    02:00 +17°C° 0 mm 3 mps 762 mmHg 97%
    03:00 +17°C° 0 mm 3 mps 762 mmHg 97%
    04:00 +17°C° 0 mm 3 mps 762 mmHg 97%
    05:00 +19°C° 0 mm 3 mps 762 mmHg 89%
    06:00 +21°C° 0 mm 3 mps 763 mmHg 80%
    07:00 +24°C° 0 mm 3 mps 763 mmHg 71%
    08:00 +25°C° 0 mm 3 mps 763 mmHg 63%
    09:00 +27°C° 0 mm 3 mps 763 mmHg 55%
    10:00 +29°C° 0 mm 3 mps 763 mmHg 47%
    11:00 +29°C° 0 mm 4 mps 762 mmHg 47%
    12:00 +29°C° 0 mm 4 mps 762 mmHg 46%
    13:00 +29°C° 0 mm 4 mps 761 mmHg 46%
    14:00 +29°C° 0 mm 4 mps 761 mmHg 49%
    15:00 +28°C° 0 mm 5 mps 761 mmHg 52%
    16:00 +27°C° 0 mm 5 mps 760 mmHg 54%
    17:00 +25°C° 0 mm 4 mps 761 mmHg 64%
    18:00 +22°C° 0 mm 4 mps 761 mmHg 74%
    19:00 +20°C° 0 mm 4 mps 762 mmHg 84%
    20:00 +20°C° 0 mm 4 mps 762 mmHg 88%
    21:00 +19°C° 0 mm 3 mps 762 mmHg 93%
    22:00 +18°C° 0 mm 3 mps 762 mmHg 97%
    23:00 +18°C° 0 mm 3 mps 762 mmHg 97%

    23 November, Saturday

    Time Temperature Precipitation Wind Pressure Humidity
    00:00 +18°C° 0 mm 3 mps 761 mmHg 97%
    01:00 +18°C° 0 mm 3 mps 761 mmHg 97%
    02:00 +17°C° 0 mm 3 mps 761 mmHg 97%
    03:00 +17°C° 0 mm 2 mps 761 mmHg 97%
    04:00 +17°C° 0 mm 2 mps 761 mmHg 96%
    05:00 +19°C° 0 mm 2 mps 762 mmHg 88%
    06:00 +21°C° 0 mm 2 mps 762 mmHg 79%
    07:00 +24°C° 0 mm 1 mps 762 mmHg 71%
    08:00 +26°C° 0 mm 2 mps 762 mmHg 64%
    09:00 +27°C° 0 mm 3 mps 762 mmHg 57%
    10:00 +29°C° 0 mm 3 mps 762 mmHg 50%
    11:00 +29°C° 0 mm 4 mps 761 mmHg 49%
    12:00 +29°C° 0 mm 4 mps 761 mmHg 49%
    13:00 +29°C° 0 mm 5 mps 760 mmHg 49%
    14:00 +29°C° 0 mm 5 mps 760 mmHg 52%
    15:00 +28°C° 0 mm 5 mps 759 mmHg 54%
    16:00 +27°C° 0 mm 5 mps 759 mmHg 57%
    17:00 +26°C° 0 mm 5 mps 759 mmHg 66%
    18:00 +23°C° 0 mm 5 mps 760 mmHg 76%
    19:00 +21°C° 0 mm 4 mps 760 mmHg 85%
    20:00 +20°C° 0 mm 4 mps 760 mmHg 89%
    21:00 +19°C° 0 mm 4 mps 761 mmHg 93%
    22:00 +18°C° 0 mm 3 mps 761 mmHg 97%
    23:00 +18°C° 0 mm 3 mps 761 mmHg 97%

    24 November, Sunday

    Time Temperature Precipitation Wind Pressure Humidity
    00:00 +18°C° 0 mm 3 mps 761 mmHg 97%
    01:00 +18°C° 0 mm 2 mps 761 mmHg 97%
    02:00 +18°C° 0 mm 2 mps 761 mmHg 96%
    03:00 +18°C° 0 mm 2 mps 761 mmHg 96%
    04:00 +19°C° 0 mm 2 mps 761 mmHg 95%
    05:00 +20°C° 0 mm 2 mps 761 mmHg 86%
    06:00 +23°C° 0 mm 2 mps 762 mmHg 78%
    07:00 +24°C° 0 mm 2 mps 762 mmHg 70%
    08:00 +26°C° 0 mm 2 mps 762 mmHg 62%
    09:00 +27°C° 0 mm 2 mps 762 mmHg 54%
    10:00 +29°C° 0 mm 3 mps 762 mmHg 46%
    11:00 +29°C° 0 mm 3 mps 761 mmHg 46%
    12:00 +29°C° 0 mm 4 mps 760 mmHg 47%
    13:00 +29°C° 0 mm 4 mps 760 mmHg 48%
    14:00 +29°C° 0 mm 4 mps 759 mmHg 51%
    15:00 +28°C° 0 mm 4 mps 759 mmHg 54%
    16:00 +27°C° 0 mm 4 mps 759 mmHg 58%
    17:00 +25°C° 0 mm 4 mps 759 mmHg 68%
    18:00 +22°C° 0 mm 4 mps 760 mmHg 77%
    19:00 +20°C° 0 mm 4 mps 761 mmHg 87%
    20:00 +19°C° 0 mm 4 mps 761 mmHg 89%
    21:00 +19°C° 0 mm 3 mps 762 mmHg 91%
    22:00 +18°C° 0 mm 3 mps 762 mmHg 93%
    23:00 +18°C° 0 mm 3 mps 762 mmHg 94%
    Show more